EW6941 Weather Reports


time (UTC)temp
C
wind
direction
speed
KPH
gust
KPH
rain 1hr
cm
rain 24hr
cm
rain mn
cm
humidity
%
barometer
mb
20260508023017 10 81 0.0 3.2 0.00 0.00 0.00 56 1012.8
20260508021529 10 266 0.0 3.2 0.00 0.00 0.00 59 1012.7
20260508020026 10 9 1.6 3.2 0.00 0.00 0.00 58 1012.5
20260508014513 10 302 0.0 3.2 0.00 0.00 0.00 58 1012.4
20260508013027 11 113 0.0 4.8 0.00 0.00 0.00 51 1012.0
20260508011520 12 290 0.0 3.2 0.00 0.00 0.00 49 1011.8
20260508010022 13 314 1.6 4.8 0.00 0.00 0.00 42 1011.6
20260508004536 13 272 4.8 11.3 0.00 0.00 0.00 40 1011.4
20260508003012 14 276 3.2 8.0 0.00 0.00 0.00 39 1011.1
20260508001519 15 257 1.6 17.7 0.00 0.00 0.00 39 1011.1
20260508000023 15 230 1.6 11.3 0.00 0.00 0.00 38 1010.6
20260507234528 15 282 4.8 14.5 0.00 0.00 0.00 38 1010.4
20260507233035 15 310 9.7 14.5 0.00 0.00 0.00 37 1010.3
20260507231514 16 125 0.0 11.3 0.00 0.00 0.00 39 1010.1
20260507230020 16 275 6.4 20.9 0.00 0.00 0.00 37 1009.9
20260507224522 17 289 11.3 20.9 0.00 0.00 0.00 35 1009.9
20260507223028 17 143 4.8 19.3 0.00 0.00 0.00 35 1009.7
20260507221528 17 292 17.7 27.4 0.00 0.00 0.00 33 1009.5
20260507220018 17 243 11.3 20.9 0.00 0.00 0.00 34 1009.2
20260507214525 18 11 4.8 24.1 0.00 0.00 0.00 35 1009.1
20260507213025 17 283 3.2 20.9 0.00 0.00 0.00 34 1008.9
20260507211528 17 298 3.2 11.3 0.00 0.00 0.00 34 1008.9
20260507210038 18 306 8.0 22.5 0.00 0.00 0.00 34 1008.8
20260507204526 18 217 1.6 22.5 0.00 0.00 0.00 36 1008.8
20260507203014 18 8 11.3 25.7 0.00 0.00 0.00 36 1008.6
20260507201512 18 203 12.9 27.4 0.00 0.00 0.00 35 1008.8
20260507200015 18 262 6.4 29.0 0.00 0.00 0.00 36 1009.0
20260507194517 18 276 4.8 12.9 0.00 0.00 0.00 35 1009.0
20260507193015 18 308 12.9 20.9 0.00 0.00 0.00 36 1009.1
20260507191514 18 89 1.6 25.7 0.00 0.00 0.00 38 1009.0
20260507190008 18 243 9.7 19.3 0.00 0.00 0.00 37 1009.0
20260507184517 17 105 3.2 25.7 0.00 0.00 0.00 37 1009.1
20260507183025 18 255 9.7 19.3 0.00 0.00 0.00 37 1009.2
20260507181517 18 151 4.8 17.7 0.00 0.00 0.00 38 1009.2
20260507180018 18 281 3.2 14.5 0.00 0.00 0.00 43 1009.2
20260507174528 18 132 6.4 17.7 0.00 0.00 0.00 44 1009.2
20260507173019 17 350 3.2 20.9 0.00 0.00 0.00 47 1009.7
20260507171517 17 343 4.8 27.4 0.00 0.00 0.00 44 1009.9
20260507170020 17 156 6.4 14.5 0.00 0.00 0.00 43 1010.3
20260507164521 16 169 4.8 12.9 0.00 0.00 0.00 48 1010.6
20260507163013 16 167 6.4 27.4 0.00 0.00 0.00 46 1010.9
20260507161516 16 256 8.0 16.1 0.00 0.00 0.00 48 1011.0
20260507160023 15 157 3.2 8.0 0.00 0.00 0.00 50 1011.2
20260507154530 15 217 0.0 6.4 0.00 0.00 0.00 51 1011.4
20260507153035 15 141 1.6 8.0 0.00 0.00 0.00 53 1011.7
20260507151515 14 95 0.0 1.6 0.00 0.00 0.00 54 1011.9
20260507150024 14 111 0.0 4.8 0.00 0.00 0.00 56 1012.2
20260507144523 13 124 1.6 4.8 0.00 0.00 0.00 58 1012.5
20260507143025 13 121 0.0 0.0 0.00 0.00 0.00 59 1012.8
20260507141521 12 136 0.0 4.8 0.00 0.00 0.00 64 1013.1
20260507140020 12 108 1.6 3.2 0.00 0.00 0.00 63 1013.2
20260507134523 12 82 0.0 1.6 0.00 0.00 0.00 64 1013.5
20260507133024 11 105 0.0 4.8 0.00 0.00 0.00 67 1013.6
20260507131524 11 343 0.0 0.0 0.00 0.00 0.00 68 1013.7
20260507130035 11 58 0.0 3.2 0.00 0.00 0.00 70 1013.8
20260507124527 11 76 0.0 8.0 0.00 0.03 0.00 70 1013.9
20260507123006 11 99 0.0 0.0 0.00 0.03 0.00 77 1013.7
20260507121509 10 99 0.0 0.0 0.00 0.05 0.00 78 1013.6
20260507120020 10 99 0.0 0.0 0.00 0.05 0.00 79 1013.5
20260507114516 10 98 0.0 0.0 0.00 0.05 0.00 80 1013.5
20260507113023 10 98 0.0 0.0 0.00 0.08 0.00 80 1013.3
20260507111507 10 86 0.0 3.2 0.00 0.13 0.00 80 1013.1
20260507110012 10 91 0.0 3.2 0.00 0.13 0.00 79 1013.1
20260507104518 10 68 0.0 1.6 0.00 0.13 0.00 79 1012.9
20260507103028 10 23 0.0 0.0 0.00 0.15 0.00 81 1012.6
20260507101503 10 23 0.0 0.0 0.00 0.15 0.00 80 1012.4
20260507100009 10 23 0.0 0.0 0.00 0.15 0.00 80 1012.2
20260507094516 10 23 0.0 0.0 0.00 0.15 0.00 79 1012.1
20260507093020 10 276 0.0 0.0 0.00 0.15 0.00 79 1012.1
20260507091527 10 276 0.0 0.0 0.00 0.15 0.00 78 1012.4
20260507090007 11 276 0.0 0.0 0.00 0.15 0.00 77 1012.2
20260507084518 11 276 0.0 0.0 0.00 0.15 0.00 76 1012.0
20260507083016 11 266 0.0 0.0 0.00 0.15 0.00 73 1012.4
20260507081523 11 356 3.2 6.4 0.00 0.15 0.00 71 1012.5
20260507080037 11 119 0.0 3.2 0.00 0.15 0.00 74 1012.3
20260507074511 11 6 0.0 0.0 0.00 0.15 0.00 74 1012.4
20260507073018 11 223 0.0 1.6 0.00 0.15 0.00 73 1012.1
20260507071553 11 295 0.0 1.6 0.00 0.15 0.00 71 1012.0
20260507070022 11 229 0.0 1.6 0.00 0.15 0.00 69 1012.1
20260507064527 12 148 0.0 6.4 0.00 0.15 0.00 71 1012.0
20260507063009 12 319 0.0 1.6 0.00 0.15 0.00 72 1012.1
20260507061518 12 237 0.0 0.0 0.00 0.15 0.00 81 1012.4
20260507060019 12 298 0.0 0.0 0.00 0.15 0.00 80 1012.4
20260507054528 12 37 0.0 0.0 0.00 0.15 0.00 81 1012.4
20260507053042 12 37 0.0 3.2 0.00 0.15 0.00 80 1012.5
20260507051527 12 277 0.0 8.0 0.00 0.15 0.00 81 1012.4
20260507050027 12 98 0.0 0.0 0.00 0.15 0.00 81 1012.2
20260507044527 12 84 0.0 6.4 0.00 0.15 0.00 80 1012.1
20260507043027 13 94 1.6 8.0 0.00 0.15 0.00 81 1011.9
20260507041530 13 94 0.0 0.0 0.00 0.15 0.00 80 1011.7
20260507040018 13 60 0.0 4.8 0.00 0.15 0.00 78 1012.0
20260507034532 14 110 0.0 6.4 0.00 0.15 0.15 76 1010.9
20260507033038 14 2 1.6 3.2 0.00 0.15 0.15 76 1012.2
20260507031509 14 34 0.0 3.2 0.00 0.15 0.15 76 1011.3
20260507030020 14 328 0.0 4.8 0.00 0.15 0.15 76 1011.8
20260507024523 15 247 0.0 3.2 0.00 0.15 0.15 75 1011.9